Retour au catalogue

TEMPSAT 1

ActifSciencePO
NORAD 1512·PAYLOAD·🇺🇸 United States

Lancé Aug 13, 1965 depuis Vandenberg Space Force Base

Loading…

Prochains Passages (prochaines 24 heures)

TLE

FraisSource: Space-Track

Époque: Sep 14, 2026, 08:47 UTC

1 01512U 65065E   26257.36603649  .00000028  00000-0  38830-4 0  9996
2 01512  90.0058 212.6109 0069842 359.9159 153.8627 13.33598354971939

Suivez TEMPSAT 1 en temps réel avec AllMySat

Download on the App Store